sat.trackr.live / text

‹ back to catalog

STARLINK-6374

NORAD 57338 · 2023-099L

PAYLOAD ACTIVE UNKNOWN

§ Identity

Operator
Country
US
Launch date
2023-07-16
Launch site
AFETR
Launch vehicle
Mass (kg)
RCS (m²)

Purposes: comms

External: N2YO · Heavens-Above · Gunter

§ Orbital elements

Epoch: 2026-05-25T02:58:21.267264Z

Period
94.27 min
Inclination
43.0022°
Eccentricity
0.0000526
Mean motion
15.27581139 rev/d
Perigee alt
482.7 km
Apogee alt
483.4 km
Semi-major
6,861.2 km
B*
5.4157e-5
RAAN
180.9380°
Arg perigee
264.6369°
Mean anomaly
95.4422°
Rev number
15,776

§ Raw data

STARLINK-63741 57338U 23099L   26145.12385726  .00001229  00000+0  54157-4 0  99902 57338  43.0022 180.9380 0000526 264.6369  95.4422 15.27581139157761

JSON: /api/v1/satellites/57338 · /tle

For live sub-satellite position, see the globe view (requires WebGL).

§ Visibility from observer

Set your observer location to see the next 7 days of passes ≥ 10°. The values pass through the URL so the page stays shareable.

No JS? Fill the form by hand. The geolocation button needs JavaScript.